Tracking 17630 objects as of 25-May-2016
HD Live streaming from Space Station
objects crossing your sky now

OPS 6182 (DMSP 5D-1 F2)

Track OPS 6182 (DMSP 5D-1 F2) now!
10-day predictions
OPS 6182 (DMSP 5D-1 F2) is classified as:


NORAD ID: 10820
Int'l Code: 1978-042A
Perigee: 774.6 km
Apogee: 789.8 km
Inclination: 98.6 °
Period: 100.3 minutes
Semi major axis: 7153 km
RCS: 4.1055 m2 (large)
Launch date: May 1, 1978
Source: United States (US)
Launch site: AIR FORCE WESTERN TEST RANGE (AFWTR)
Your satellite tracking list
Your tracking list is empty





NASA's NSSDC Master Catalog

Two Line Element Set (TLE):
1 10820U 78042A   16145.16367274  .00000104  00000-0  52039-4 0  9993
2 10820  98.5612 330.6221 0010592 113.3069 246.9231 14.34994746985551
Source of the keplerian elements: AFSPC

N2YO: 512